Location: Knowlton
(51.2333°N, 1.2667°E)
Time: 10:34:54
(UTC+00:00)

Okean 3 Rocket - Pass Details

Date: 18 April 2021
Orbit: 615 x 644 km, 82.5° (Epoch: 05 May)

Event Time Altitude Azimuth Distance (km) Brightness Sun altitude
Rises 20:51:08 0° 354° (N) 2,969 7.9 -16.1°
Reaches altitude 10° 20:53:30 10° 1° (N) 2,052 6.8 -16.4°
Maximum altitude 20:57:51 43° 73° (ENE) 907 4.2 -16.9°
Enters shadow 20:59:21 32° 119° (ESE) 1,106 4.3 -17.1°
